| time (UTC) | temp C | wind direction | speed KPH | gust KPH | rain 1hr cm | rain 24hr cm | rain mn cm | humidity % | barometer mb |
| 20260504081552 | -17 | 315 | 0.0 | 0.0 | 0.00 | 0.00 | 0.00 | 1007.1 | |
| 20260504050146 | -17 | 321 | 0.0 | 0.0 | 0.00 | 0.00 | 0.00 | 1006.3 | |
| 20260504044538 | -17 | 313 | 0.0 | 0.0 | 0.00 | 0.00 | 0.00 | 1006.0 | |
| 20260504043134 | -17 | 360 | 0.0 | 0.0 | 0.00 | 0.00 | 0.00 | 1006.2 | |
| 20260504041529 | -17 | 355 | 0.0 | 0.0 | 0.00 | 0.00 | 0.00 | 1006.3 | |
| 20260504040026 | -17 | 318 | 0.0 | 0.0 | 0.00 | 0.00 | 0.00 | 1006.2 | |
| 20260504034551 | -17 | 360 | 0.0 | 0.0 | 0.00 | 0.00 | 0.00 | 1006.6 | |
| 20260504033047 | -17 | 322 | 0.0 | 0.0 | 0.00 | 0.00 | 0.00 | 1006.7 | |
| 20260504031539 | -17 | 5 | 0.0 | 0.0 | 0.00 | 0.00 | 0.00 | 1007.1 | |
| 20260504030035 | -17 | 346 | 0.0 | 0.0 | 0.00 | 0.00 | 0.00 | 1007.1 | |
| 20260504024534 | -17 | 360 | 0.0 | 0.0 | 0.00 | 0.00 | 0.00 | 1007.4 | |
| 20260504023026 | -17 | 355 | 0.0 | 0.0 | 0.00 | 0.00 | 0.00 | 1007.9 | |
| 20260504021517 | -17 | 26 | 0.0 | 0.0 | 0.00 | 0.00 | 0.00 | 1008.5 | |
| 20260504020014 | -17 | 311 | 0.0 | 0.0 | 0.00 | 0.00 | 0.00 | 1008.7 | |
| 20260504014517 | -17 | 317 | 0.0 | 0.0 | 0.00 | 0.00 | 0.00 | 1009.1 | |
| 20260504013018 | -17 | 335 | 0.0 | 0.0 | 0.00 | 0.00 | 0.00 | 1009.8 | |
| 20260504011600 | -17 | 322 | 0.0 | 0.0 | 0.00 | 0.00 | 0.00 | 1010.4 | |
| 20260504010053 | -17 | 323 | 0.0 | 0.0 | 0.00 | 0.00 | 0.00 | 1010.8 | |
| 20260504004619 | -17 | 360 | 0.0 | 0.0 | 0.00 | 0.00 | 0.00 | 1011.5 | |
| 20260504003050 | -17 | 317 | 0.0 | 0.0 | 0.00 | 0.00 | 0.00 | 1012.7 | |
| 20260504001555 | -17 | 320 | 0.0 | 0.0 | 0.00 | 0.00 | 0.00 | 1013.8 | |
| 20260504000032 | -17 | 285 | 0.0 | 0.0 | 0.00 | 0.00 | 0.00 | 1015.5 | |
| 20260503234529 | -17 | 313 | 0.0 | 0.0 | 0.00 | 0.00 | 0.00 | 1017.8 | |
| 20260503233023 | -17 | 15 | 0.0 | 0.0 | 0.00 | 0.00 | 0.00 | 1018.1 | |
| 20260503231519 | -17 | 63 | 0.0 | 0.0 | 0.00 | 0.00 | 0.00 | 1018.3 | |
| 20260503230011 | -17 | 360 | 0.0 | 0.0 | 0.00 | 0.00 | 0.00 | 1018.4 | |
| 20260503224507 | -17 | 17 | 0.0 | 0.0 | 0.00 | 0.00 | 0.00 | 1018.6 | |
| 20260503223003 | -17 | 27 | 0.0 | 0.0 | 0.00 | 0.00 | 0.00 | 1018.5 | |
| 20260503221528 | -17 | 341 | 0.0 | 0.0 | 0.00 | 0.00 | 0.00 | 1018.5 | |
| 20260503220026 | -17 | 350 | 0.0 | 0.0 | 0.00 | 0.00 | 0.00 | 1018.6 | |
| 20260503214519 | -17 | 355 | 0.0 | 0.0 | 0.00 | 0.00 | 0.00 | 1018.6 | |
| 20260503213013 | -17 | 24 | 0.0 | 0.0 | 0.00 | 0.00 | 0.00 | 1018.5 | |
| 20260503211509 | -17 | 300 | 0.0 | 0.0 | 0.00 | 0.00 | 0.00 | 1018.4 | |
| 20260503210005 | -17 | 17 | 0.0 | 0.0 | 0.00 | 0.00 | 0.00 | 1018.1 | |
| 20260503204601 | -17 | 10 | 0.0 | 0.0 | 0.00 | 0.00 | 0.00 | 1018.0 | |
| 20260503203043 | -17 | 334 | 0.0 | 0.0 | 0.00 | 0.00 | 0.00 | 1018.1 | |
| 20260503201522 | -17 | 344 | 0.0 | 0.0 | 0.00 | 0.00 | 0.00 | 1018.0 | |
| 20260503200048 | -17 | 338 | 0.0 | 0.0 | 0.00 | 0.00 | 0.00 | 1018.3 | |
| 20260503194545 | -17 | 306 | 0.0 | 0.0 | 0.00 | 0.00 | 0.00 | 1018.4 | |
| 20260503193039 | -17 | 329 | 0.0 | 0.0 | 0.00 | 0.00 | 0.00 | 1018.5 | |
| 20260503191535 | -17 | 340 | 0.0 | 0.0 | 0.00 | 0.00 | 0.00 | 1018.6 | |
| 20260503190036 | -17 | 329 | 0.0 | 0.0 | 0.00 | 0.00 | 0.00 | 1018.6 | |
| 20260503184525 | -17 | 311 | 0.0 | 0.0 | 0.00 | 0.00 | 0.00 | 1018.7 | |
| 20260503183049 | -17 | 343 | 0.0 | 0.0 | 0.00 | 0.00 | 0.00 | 1018.8 | |
| 20260503181554 | -17 | 12 | 0.0 | 0.0 | 0.00 | 0.00 | 0.00 | 1018.9 | |
| 20260503180038 | -17 | 331 | 0.0 | 0.0 | 0.00 | 0.00 | 0.00 | 1019.0 | |
| 20260503174534 | -17 | 326 | 0.0 | 0.0 | 0.00 | 0.00 | 0.00 | 1019.1 | |
| 20260503173029 | -17 | 312 | 0.0 | 0.0 | 0.00 | 0.00 | 0.00 | 1019.2 | |
| 20260503171524 | -17 | 20 | 0.0 | 0.0 | 0.00 | 0.00 | 0.00 | 1019.1 |